Погода в Сосновке

Россия / Тюменская область     56°32′27″N   66°55′17″E
темп.,
°C
ветер,
м/с
пор.,
м/с
влажн.,
%
обл.,
%
осадки,
мм/ч
давл.,
гПа
погр.,
м
19 сентября, вс
вс1923:00+2з389279 0.1 1004152
02:00+1зюз4109314 0.0 1004224
05:000з51194100 0.0 1005480
08:00+3з71185100 0.0 1004729
11:00+3з71183100 0.1 1005953
14:00+3зсз81295100 1.1 1006932
17:00+3зсз61296100 2.1 1008869
20:00+3зсз71593100 0.4 10091068
20 сентября, пн
пн2023:00+2зсз7128895 0.4 1010917
02:00+2зсз71288100 0.1 1011809
05:00+2зсз71497100 0.3 1013819
08:00+2сз71296100 0.2 1015848
11:00+3сз61095100 0.6 1018750
14:00+5сз7981100 0.4 1020953
17:00+4сз698591 0.6 1022747
20:00+2сз5109397 0.0 1023507
21 сентября, вт
вт2123:00+3сз5992100 0.1 1024563
02:00+2ссз479289 0.1 1025520
05:00+2сз478690 0.1 1026488
08:00+2ссз4789100 0.1 1027666
11:00+2сз4574100 0.2 10271028
14:00+3сз4566100 0.1 10271104
17:00+5зсз3559100 0.1 10261108
20:00+2з3373100 0.0 102549
22 сентября, ср
ср2223:00+1зюз347684 0.0 102550
02:000зюз358239 0.0 102481
05:00+1зюз2477100 0.0 102494
08:00+3з357078 0.0 1023178
11:00+7ссз345590 0.0 1023720
14:00+8ссз5663100 0.0 10231197
17:00+6с3672100 0.0 1024644
20:00+3с349078 0.0 102686
23 сентября, чт
чт2323:00+4с248593 0.0 1027144
02:00+2с339373 0.0 102747
05:000с359710 0.0 102998
08:00+2ссв34805 0.0 1031168
11:00+7с345180 0.0 10311414
14:00+8с344674 0.0 10311579
17:00+8ссв34475 0.0 10321379
20:00+4ссв22685 0.0 103319